sat.trackr.live / text

‹ back to catalog

STARLINK-35861

NORAD 66355 · 2025-254H

PAYLOAD ACTIVE UNKNOWN

§ Identity

Operator
Country
US
Launch date
2025-11-06
Launch site
AFWTR
Launch vehicle
Mass (kg)
RCS (m²)

Purposes: comms

External: N2YO · Heavens-Above · Gunter

§ Orbital elements

Epoch: 2026-05-24T23:37:59.897856Z

Period
94.11 min
Inclination
53.1610°
Eccentricity
0.0001270
Mean motion
15.30199583 rev/d
Perigee alt
474.3 km
Apogee alt
476.1 km
Semi-major
6,853.4 km
B*
6.6064e-4
RAAN
238.2925°
Arg perigee
87.9743°
Mean anomaly
272.1404°
Rev number
3,065

§ Raw data

STARLINK-358611 66355U 25254H   26144.98472104  .00019258  00000+0  66064-3 0  99942 66355  53.1610 238.2925 0001270  87.9743 272.1404 15.30199583 30650

JSON: /api/v1/satellites/66355 · /tle

For live sub-satellite position, see the globe view (requires WebGL).

§ Visibility from observer

Set your observer location to see the next 7 days of passes ≥ 10°. The values pass through the URL so the page stays shareable.

No JS? Fill the form by hand. The geolocation button needs JavaScript.